Preview of NWS' New Version of Forecast
This preview is not operational and should not be used for support decisions.

Regional Weather Roundup (RWR)

Issued by Gray - Portland, ME (GYX)

                            
000
ASUS41 KGYX 202105
RWRGYX
WEATHER ROUNDUP FOR MAINE AND NEW HAMPSHIRE
NATIONAL WEATHER SERVICE GRAY ME
500 PM EDT SAT APR 20 2019

MEZ002-005-006-010-012-015-018-020-021-024-026-027-029-202200-
MAINE
  
CITY           SKY/WX    TMP DP  RH WIND       PRES   REMARKS
PORTLAND       CLOUDY    55  54  96 S14G21    29.91S FOG              
SANFORD        FAIR      63  60  90 SE10      29.89R                  
BAR HARBOR     FOG       52  52 100 S8        30.02S VSB 1/2          
WISCASSET      CLOUDY    56  55  97 VRB7      29.95R                  
ROCKLAND       CLOUDY    51  51 100 S7        29.98R FOG              
FRYEBURG       CLOUDY    64  63  96 SE5       29.88R                  
LEWISTONAUBURN   N/A     58  58 100 SE6       29.91S FOG              
AUGUSTA        LGT RAIN  58  58 100 SE8       29.95R VSB<1/4          
WATERVILLE     LGT RAIN  47  47 100 NE6       29.93S FOG              
BANGOR         LGT RAIN  48  47  96 NE6       30.01R FOG              
GREENVILLE       N/A     42  41  96 SE10      29.94F                  
MILLINOCKET    LGT RAIN  43  40  89 E9        30.04F                  
HOULTON        CLOUDY    41  39  93 E6        30.05F FOG              
PRESQUE ISLE   CLOUDY    42  41  96 NE5       30.09R                  
FRENCHVILLE    LGT RAIN  41  37  86 E7G16     30.07R FOG              
CARIBOU        LGT RAIN  42  39  89 NE8       30.07R FOG              
$$

NHZ002-005-008-009-011-012-014-202200-
NEW HAMPSHIRE
  
CITY           SKY/WX    TMP DP  RH WIND       PRES   REMARKS
PORTSMOUTH     PTSUNNY   62  59  90 SE7       29.87R                  
ROCHESTER      FAIR      65  62  90 SE8       29.87R                  
NASHUA         CLOUDY    71  64  78 S9G17     29.85S                  
MANCHESTER     CLOUDY    72  61  68 S13G21    29.84R                  
CONCORD        FAIR      71  62  73 S12       29.85S                  
LACONIA        PTSUNNY   70  64  81 VRB3      29.85R                  
PLYMOUTH       CLOUDY    62  61  96 CALM      29.83S FOG              
BERLIN         CLOUDY    62  61  96 CALM      29.87R                  
WHITEFIELD     CLOUDY    63  59  87 CALM      29.85S                  
JAFFREY        CLOUDY    67  59  75 S8G26     29.86R                  
KEENE          CLOUDY    69  62  78 S13G20    29.83R                  
LEBANON        LGT RAIN  68  62  81 CALM      29.79F                  
MT WASHINGTON  NOT AVBL                                               
$$

VTZ005-007-008-202200-
VERMONT
  
CITY           SKY/WX    TMP DP  RH WIND       PRES   REMARKS
ST JOHNSBURY     N/A     54  54 100 MISG      29.81S                  
MONTPELIER     CLOUDY    53  51  93 CALM      29.84F                  
BURLINGTON     CLOUDY    46  44  93 NW8       29.78S                  
$$

MAZ007-012-024-CTZ003-RIZ002-NYZ038-NYZ072-202200-
SOUTHERN NEW ENGLAND AND NY
  
CITY           SKY/WX    TMP DP  RH WIND       PRES   REMARKS
BOSTON         CLOUDY    70  64  81 S18G35    29.87S                  
WORCESTER      CLOUDY    65  61  87 S20G36    29.87R                  
NANTUCKET      CLOUDY    56  53  90 S25G36    29.97R FOG              
PROVIDENCE     LGT RAIN  59  59 100 S14       29.92R FOG              
HARTFORD       LGT RAIN  67  63  87 S20G26    29.81S FOG              
ALBANY         CLOUDY    68  60  75 S15G29    29.69F                  
NEW YORK CITY  CLOUDY    59  54  83 S21G30    29.77R                  
$$

ANZ081-ANZ082-ANZ150-NHZ014-MEZ023>029-202200-
COASTAL MARINE OBSERVATIONS
  
STATION/POSITION TIME  TEMP    WIND        PRES    WAVE
                       AIR SEA DIR/SP/G            HT/PER
                 (UTC) (F)     (DEG/KT/KT) (MB)    (FT/S)
ISLE OF SHOALS   2000   52     160/ 27/ 30 1011.0F
JEFFREYS LEDGE   2038      42                N/A     7/ 9
CASHES LEDGE BUO 2050   50 42              1013.1F   9/ 9
$$

.............KEY..............
   WCI - WIND CHILL
   TC  - TEMPERATURE IN CELSIUS
   VSB - VISIBILITY IN MILES
   HX  - HEAT INDEX
   FAIR- INDICATES FEW OR NO CLOUDS BELOW 12,000 FT, WITH NO 
         SIGNIFICANT WEATHER AND/OR OBSTRUCTIONS TO VISIBILITY.